User: anonymous   Login
Location: ??????
(38.0131°N, 23.7723°E)
Time: 03:45:31
(UTC+00:00)
Language:

Cosmos 1174 - Orbit

View from above orbital plane
View from above orbital plane
View from above satellite
View from above satellite

Ground track
Ground track

The orbit data is extracted from the following two-line orbital elements,

1 11765U 80030A   22026.48001989  .00003078  00000-0  16106-3 0  9997
2 11765  66.0876 358.3376 0541084  10.1755 350.9783 14.40877497146750
Epoch (UTC): 26 January 2022 11:31:13
Eccentricity: 0.0541084
inclination: 66.0876°
perigee height: 369 km
apogee height: 1141 km
right ascension of ascending node: 358.3376°
argument of perigee: 10.1755°
revolutions per day: 14.40877497
mean anomaly at epoch: 350.9783°
orbit number at epoch: 14675

The dashed part of the orbit path shows where the satellite is in the earth's shadow,  

DLR